This is the latest recevied weather packets stored in our database for station/object N8QQQ. If no packets are shown the sender has not sent any weather packets the latest 10 day(s).
| Time | Temp. | Humidity | Pressure | Rain* | Wind** | Luminosity | Snow |
|---|---|---|---|---|---|---|---|
| 1778107481 | 4.44° C | 51% | 1011.6 hPa | 0 mm | - | 35 W/m² | - |
| 1778107177 | 4.44° C | 49% | 1011.6 hPa | 0 mm | - | 36 W/m² | - |
| 1778106873 | 4.44° C | 49% | 1011.8 hPa | 0 mm | - | 37 W/m² | - |
| 1778106570 | 4.44° C | 50% | 1011.7 hPa | 0 mm | - | 43 W/m² | - |
| 1778106266 | 4.44° C | 49% | 1011.5 hPa | 0 mm | - | 47 W/m² | - |
| 1778105963 | 4.44° C | 49% | 1011.6 hPa | 0 mm | - | 54 W/m² | - |
| 1778105660 | 4.44° C | 50% | 1011.6 hPa | 0 mm | - | 62 W/m² | - |
| 1778105358 | 4.44° C | 50% | 1011.5 hPa | 0 mm | - | 67 W/m² | - |
| 1778105054 | 4.44° C | 50% | 1011.6 hPa | 0 mm | - | 67 W/m² | - |
| 1778104750 | 4.44° C | 49% | 1011.5 hPa | 0 mm | - | 74 W/m² | - |
| 1778104447 | 4.44° C | 50% | 1011.6 hPa | 0 mm | - | 81 W/m² | - |
| 1778104143 | 4.44° C | 50% | 1011.5 hPa | 0 mm | - | 66 W/m² | - |
| 1778103840 | 4.44° C | 51% | 1011.7 hPa | 0 mm | - | 63 W/m² | - |
| 1778103537 | 4.44° C | 50% | 1011.6 hPa | 0 mm | - | 70 W/m² | - |
| 1778103235 | 3.89° C | 50% | 1011.7 hPa | 0 mm | - | 73 W/m² | - |
| 1778102932 | 4.44° C | 50% | 1011.5 hPa | 0 mm | - | 72 W/m² | - |
| 1778102628 | 3.89° C | 50% | 1011.5 hPa | 0 mm | - | 76 W/m² | - |
| 1778102323 | 3.89° C | 50% | 1011.7 hPa | 0 mm | - | 89 W/m² | - |
| 1778102019 | 3.89° C | 50% | 1011.7 hPa | 0 mm | - | 88 W/m² | - |
| 1778101716 | 3.89° C | 50% | 1011.8 hPa | 0 mm | - | 87 W/m² | - |
| 1778101413 | 4.44° C | 50% | 1011.6 hPa | 0 mm | - | 104 W/m² | - |
| 1778101111 | 3.89° C | 52% | 1011.7 hPa | 0 mm | - | 91 W/m² | - |
| 1778100806 | 3.89° C | 53% | 1011.8 hPa | 0 mm | - | 81 W/m² | - |
| 1778100503 | 3.89° C | 53% | 1011.5 hPa | 0 mm | - | 94 W/m² | - |
| 1778100201 | 3.89° C | 54% | 1011.7 hPa | 0 mm | - | 102 W/m² | - |
* Rain latest hour (hover to see other rain measurements)
** Current wind speed in m/s (hover to see current wind gust speed)